TimeCST,TemperatureF,Dew PointF,Humidity,Sea Level PressureIn,VisibilityMPH,Wind Direction,Wind SpeedMPH,Gust SpeedMPH,PrecipitationIn,Events,Conditions,WindDirDegrees,DateUTC
12:15 AM,17.2,17.2,100,30.26,7.0,Calm,Calm,-,N/A,,Clear,0,2013-01-02 06:15:00
12:35 AM,17.6,17.6,100,30.24,10.0,Calm,Calm,-,N/A,,Clear,0,2013-01-02 06:35:00
12:55 AM,15.8,15.8,100,30.24,10.0,Calm,Calm,-,N/A,,Clear,0,2013-01-02 06:55:00
1:15 AM,15.6,15.8,100,30.25,10.0,Calm,Calm,-,N/A,,Clear,0,2013-01-02 07:15:00
1:35 AM,16.0,15.8,99,30.26,10.0,Calm,Calm,-,N/A,,Clear,0,2013-01-02 07:35:00
1:55 AM,16.0,15.6,98,30.26,10.0,Calm,Calm,-,N/A,,Clear,0,2013-01-02 07:55:00
2:15 AM,16.7,16.7,100,30.27,10.0,Calm,Calm,-,N/A,,Clear,0,2013-01-02 08:15:00
2:35 AM,15.6,15.4,99,30.27,10.0,Calm,Calm,-,N/A,,Clear,0,2013-01-02 08:35:00
2:55 AM,16.5,16.5,100,30.27,10.0,Calm,Calm,-,N/A,,Clear,0,2013-01-02 08:55:00
3:15 AM,15.6,15.3,98,30.27,10.0,Calm,Calm,-,N/A,,Clear,0,2013-01-02 09:15:00
3:35 AM,15.6,15.3,98,30.26,10.0,Calm,Calm,-,N/A,,Clear,0,2013-01-02 09:35:00
3:55 AM,15.6,15.1,98,30.25,10.0,Calm,Calm,-,N/A,,Clear,0,2013-01-02 09:55:00
4:15 AM,15.6,15.3,98,30.25,10.0,Calm,Calm,-,N/A,,Clear,0,2013-01-02 10:15:00
4:35 AM,15.6,15.3,98,30.24,10.0,Calm,Calm,-,N/A,,Clear,0,2013-01-02 10:35:00
4:55 AM,15.6,15.3,98,30.24,10.0,Calm,Calm,-,N/A,,Clear,0,2013-01-02 10:55:00
5:15 AM,15.6,14.9,97,30.24,10.0,Calm,Calm,-,N/A,,Clear,0,2013-01-02 11:15:00
5:35 AM,14.7,14.0,97,30.24,10.0,Calm,Calm,-,N/A,,Clear,0,2013-01-02 11:35:00
6:15 AM,15.6,14.9,97,30.23,10.0,Calm,Calm,-,N/A,,Clear,0,2013-01-02 12:15:00
6:35 AM,15.6,14.9,97,30.23,10.0,South,4.6,-,N/A,,Clear,190,2013-01-02 12:35:00
6:55 AM,15.6,14.7,96,30.22,10.0,South,4.6,-,N/A,,Clear,180,2013-01-02 12:55:00
7:15 AM,16.0,15.3,97,30.23,10.0,SW,4.6,-,N/A,,Clear,220,2013-01-02 13:15:00
7:35 AM,16.7,16.0,97,30.23,7.0,SW,3.5,-,N/A,,Clear,230,2013-01-02 13:35:00
7:55 AM,16.0,15.3,97,30.22,7.0,South,3.5,-,N/A,,Clear,190,2013-01-02 13:55:00
8:15 AM,16.9,16.3,98,30.22,7.0,SSW,4.6,-,N/A,,Clear,210,2013-01-02 14:15:00
8:35 AM,18.7,18.5,99,30.22,7.0,SSW,4.6,-,N/A,,Clear,210,2013-01-02 14:35:00
8:55 AM,21.2,20.5,97,30.23,10.0,SW,6.9,-,N/A,,Clear,220,2013-01-02 14:55:00
9:15 AM,22.6,21.0,93,30.24,10.0,SW,6.9,-,N/A,,Clear,220,2013-01-02 15:15:00
9:35 AM,23.9,21.0,89,30.24,10.0,SW,9.2,-,N/A,,Clear,220,2013-01-02 15:35:00
9:55 AM,25.7,21.2,83,30.24,10.0,SW,11.5,-,N/A,,Clear,230,2013-01-02 15:55:00
10:15 AM,27.0,20.8,78,30.24,10.0,WSW,11.5,-,N/A,,Clear,240,2013-01-02 16:15:00
10:35 AM,28.2,21.4,76,30.24,10.0,SW,10.4,-,N/A,,Clear,230,2013-01-02 16:35:00
10:55 AM,29.8,21.4,71,30.24,10.0,WSW,12.7,-,N/A,,Clear,240,2013-01-02 16:55:00
11:15 AM,30.7,22.1,70,30.24,10.0,WSW,10.4,-,N/A,,Clear,240,2013-01-02 17:15:00
11:35 AM,30.7,22.3,71,30.23,10.0,WSW,13.8,18.4,N/A,,Clear,240,2013-01-02 17:35:00
11:55 AM,31.1,23.2,72,30.22,10.0,WSW,12.7,-,N/A,,Clear,240,2013-01-02 17:55:00
12:15 PM,32.4,24.8,74,30.21,10.0,SW,11.5,-,N/A,,Clear,230,2013-01-02 18:15:00
12:35 PM,32.9,25.2,73,30.19,10.0,WSW,9.2,-,N/A,,Clear,240,2013-01-02 18:35:00
12:55 PM,34.5,25.9,71,30.17,10.0,SSW,10.4,-,N/A,,Clear,210,2013-01-02 18:55:00
1:15 PM,35.6,26.6,70,30.17,10.0,WSW,9.2,-,N/A,,Clear,240,2013-01-02 19:15:00
1:35 PM,35.6,25.9,68,30.16,10.0,SW,10.4,-,N/A,,Clear,220,2013-01-02 19:35:00
1:55 PM,35.6,25.5,67,30.15,10.0,SSW,10.4,16.1,N/A,,Clear,200,2013-01-02 19:55:00
2:15 PM,35.6,25.2,66,30.15,10.0,SSW,11.5,-,N/A,,Clear,210,2013-01-02 20:15:00
2:35 PM,35.6,25.7,67,30.15,10.0,SW,8.1,-,N/A,,Clear,220,2013-01-02 20:35:00
2:55 PM,36.1,25.5,65,30.15,10.0,SW,12.7,-,N/A,,Clear,230,2013-01-02 20:55:00
3:15 PM,36.3,25.9,66,30.16,10.0,SW,11.5,-,N/A,,Clear,230,2013-01-02 21:15:00
3:35 PM,36.9,26.2,65,30.16,10.0,SW,10.4,-,N/A,,Clear,230,2013-01-02 21:35:00
3:55 PM,37.4,26.2,64,30.16,10.0,WSW,11.5,-,N/A,,Clear,240,2013-01-02 21:55:00
4:15 PM,36.7,25.7,64,30.16,10.0,WSW,6.9,-,N/A,,Clear,240,2013-01-02 22:15:00
4:35 PM,36.1,25.3,65,30.17,10.0,SW,6.9,-,N/A,,Clear,230,2013-01-02 22:35:00
4:55 PM,35.6,25.3,66,30.17,10.0,WSW,6.9,-,N/A,,Clear,240,2013-01-02 22:55:00
5:15 PM,35.6,26.4,69,30.18,10.0,WSW,4.6,-,N/A,,Clear,240,2013-01-02 23:15:00
5:35 PM,34.9,27.3,74,30.19,10.0,Calm,Calm,-,N/A,,Clear,0,2013-01-02 23:35:00
5:55 PM,33.4,25.7,73,30.19,10.0,SW,3.5,-,N/A,,Clear,220,2013-01-02 23:55:00
6:35 PM,32.0,25.0,75,30.20,10.0,SSW,4.6,-,N/A,,Clear,200,2013-01-03 00:35:00
6:55 PM,30.7,24.4,77,30.20,10.0,South,4.6,-,N/A,,Mostly Cloudy,190,2013-01-03 00:55:00
7:15 PM,30.7,24.8,79,30.20,10.0,SSW,3.5,-,N/A,,Overcast,200,2013-01-03 01:15:00
7:35 PM,30.9,25.9,82,30.20,10.0,SW,4.6,-,N/A,,Overcast,220,2013-01-03 01:35:00
7:55 PM,30.7,26.4,84,30.21,10.0,Calm,Calm,-,N/A,,Mostly Cloudy,0,2013-01-03 01:55:00
8:15 PM,30.7,26.2,83,30.22,10.0,WSW,4.6,-,N/A,,Scattered Clouds,250,2013-01-03 02:15:00
8:35 PM,30.7,26.4,84,30.23,10.0,West,4.6,-,N/A,,Clear,280,2013-01-03 02:35:00
8:55 PM,30.7,27.0,86,30.24,10.0,NW,3.5,-,N/A,,Clear,310,2013-01-03 02:55:00
9:15 PM,30.7,27.9,89,30.24,10.0,WNW,3.5,-,N/A,,Clear,300,2013-01-03 03:15:00
9:35 PM,30.7,27.7,88,30.25,10.0,NW,4.6,-,N/A,,Clear,320,2013-01-03 03:35:00
9:55 PM,30.7,26.8,85,30.25,10.0,NW,5.8,-,N/A,,Clear,320,2013-01-03 03:55:00
10:15 PM,30.7,25.3,80,30.25,10.0,NW,6.9,-,N/A,,Clear,320,2013-01-03 04:15:00
10:35 PM,30.4,25.0,80,30.26,10.0,NNW,5.8,-,N/A,,Clear,330,2013-01-03 04:35:00
10:55 PM,28.4,23.4,81,30.26,10.0,NW,4.6,-,N/A,,Clear,320,2013-01-03 04:55:00
11:15 PM,28.2,23.7,83,30.27,10.0,NNW,4.6,-,N/A,,Clear,330,2013-01-03 05:15:00
11:35 PM,27.5,23.4,84,30.27,10.0,Calm,Calm,-,N/A,,Clear,0,2013-01-03 05:35:00
11:55 PM,25.7,22.5,88,30.27,10.0,NW,3.5,-,N/A,,Clear,320,2013-01-03 05:55:00